Tri-Cities, TN

3:16 PM EDT on April 25, 2017 (GMT -0400)
Tri-Cities Regional Tennessee / Virginia

Weather History for KTRI - September, 2013

Change the Weather History Date:

Thursday, September 26, 2013

  Actual Average Record
Temperature  
Mean Temperature 66 °F 63 °F  
Max Temperature 77 °F 76 °F 89 °F (1970)
Min Temperature 55 °F 51 °F 36 °F (2001)
Degree Days  
Heating Degree Days 0 4  
Month to date heating degree days 14 33  
Since 1 July heating degree days 14 34  
Cooling Degree Days 1 2  
Month to date cooling degree days 120 110  
Year to date cooling degree days 978 962  
Growing Degree Days 16 (Base 50)    
Moisture  
Dew Point 57 °F    
Average Humidity 66    
Maximum Humidity 93    
Minimum Humidity 38    
Precipitation  
Precipitation 0.04 in 0.09 in 2.06 in (2009)
Month to date precipitation 1.85 2.64  
Year to date precipitation 46.72 32.09  
Snow  
Snow 0.00 in 0.00 in - ()
Month to date snowfall 0.0 0.0  
Since 1 July snowfall 0.0 0.0  
Since 1 September snowfall 0.0 0.0  
Snow Depth 0.00 in    
Sea Level Pressure  
Sea Level Pressure 29.94 in    
Wind  
Wind Speed 2 mph (North)    
Max Wind Speed 9 mph    
Max Gust Speed 12 mph    
Visibility 8 miles    
Events Rain    
T = Trace of Precipitation, MM = Missing Value Source: NWS Daily Summary

Daily Weather History Graph

Daily Weather History Graph

Search for Another Location

Airport or City:

Trip Planner

Search our weather history database for the weather conditions in past years. The results will help you decide how hot, cold, wet, or windy it might be!

Date:

Astronomy

Sep. 26, 2013 Rise Set
Actual Time 7:20 AM EDT 7:20 PM EDT
Civil Twilight 6:55 AM EDT 7:45 PM EDT
Nautical Twilight 6:25 AM EDT 8:15 PM EDT
Astronomical Twilight 5:54 AM EDT 8:45 PM EDT
Moon No Moon Rise 2:03 PM EDT (9/26)
Length of Visible Light 12h 50m
Length of Day
11h 59m
Waning Gibbous, 55% of the Moon is Illuminated
Sep 26
Waning Gibbous
Sep 26
Last Quarter
Oct 4
New
Oct 11
First Quarter
Oct 18
Full

Hourly Weather History & Observations

Time (EDT) Temp. Dew Point Humidity Pressure Visibility Wind Dir Wind Speed Gust Speed Precip Events Conditions
12:32 AM 64.0 °F 61.0 °F 90% 29.93 in 10.0 mi Calm Calm - N/A   Overcast
12:53 AM 64.0 °F 60.1 °F 87% 29.87 in 10.0 mi Calm Calm - N/A   Overcast
1:21 AM 64.0 °F 60.1 °F 87% 29.93 in 10.0 mi Calm Calm - N/A   Overcast
1:53 AM 63.0 °F 60.1 °F 90% 29.87 in 9.0 mi Calm Calm - N/A   Overcast
2:09 AM 63.0 °F 60.1 °F 90% 29.93 in 9.0 mi Calm Calm - N/A   Overcast
2:53 AM 62.1 °F 59.0 °F 90% 29.87 in 3.0 mi Calm Calm - 0.01 in Rain Light Rain
3:01 AM 62.1 °F 59.0 °F 90% 29.93 in 4.0 mi Calm Calm - 0.01 in Rain Light Rain
3:40 AM 62.1 °F 59.0 °F 90% 29.93 in 2.5 mi Calm Calm - 0.03 in Rain Light Rain
3:49 AM 62.6 °F 59.0 °F 88% 29.93 in 3.0 mi Calm Calm - 0.03 in Rain Light Rain
3:53 AM 62.1 °F 59.0 °F 90% 29.88 in 3.0 mi Calm Calm - 0.03 in Rain Light Rain
4:53 AM 61.0 °F 59.0 °F 93% 29.88 in 6.0 mi Calm Calm - 0.00 in Rain Light Rain
5:53 AM 60.1 °F 57.9 °F 93% 29.89 in 7.0 mi Calm Calm - 0.00 in   Overcast
6:53 AM 60.1 °F 57.9 °F 93% 29.90 in 7.0 mi Calm Calm - N/A   Overcast
7:34 AM 61.0 °F 57.9 °F 90% 29.97 in 10.0 mi Calm Calm - N/A   Overcast
7:53 AM 61.0 °F 57.9 °F 90% 29.92 in 10.0 mi Calm Calm - N/A   Overcast
8:53 AM 62.1 °F 57.0 °F 84% 29.94 in 10.0 mi East 5.8 mph - N/A   Scattered Clouds
9:53 AM 64.9 °F 57.0 °F 75% 29.96 in 10.0 mi Variable 3.5 mph - N/A   Partly Cloudy
10:53 AM 68.0 °F 55.9 °F 65% 29.96 in 10.0 mi Variable 3.5 mph - N/A   Partly Cloudy
11:53 AM 70.0 °F 57.0 °F 63% 29.96 in 10.0 mi NNW 4.6 mph - N/A   Scattered Clouds
12:53 PM 71.1 °F 55.9 °F 59% 29.96 in 10.0 mi Variable 3.5 mph - N/A   Scattered Clouds
1:53 PM 72.0 °F 55.0 °F 55% 29.94 in 10.0 mi Variable 3.5 mph - N/A   Scattered Clouds
2:53 PM 73.9 °F 55.0 °F 52% 29.94 in 10.0 mi Variable 6.9 mph - N/A   Scattered Clouds
3:53 PM 75.9 °F 53.1 °F 45% 29.93 in 10.0 mi NNW 3.5 mph - N/A   Scattered Clouds
4:53 PM 75.0 °F 52.0 °F 44% 29.93 in 10.0 mi NNW 3.5 mph - N/A   Scattered Clouds
5:53 PM 75.9 °F 48.9 °F 38% 29.94 in 10.0 mi NNE 3.5 mph - N/A   Scattered Clouds
6:53 PM 71.1 °F 54.0 °F 55% 29.96 in 10.0 mi North 4.6 mph - N/A   Scattered Clouds
7:53 PM 64.9 °F 57.0 °F 75% 29.97 in 10.0 mi NE 3.5 mph - N/A   Partly Cloudy
8:53 PM 61.0 °F 55.9 °F 83% 29.99 in 10.0 mi Calm Calm - N/A   Clear
9:53 PM 59.0 °F 55.0 °F 87% 30.02 in 10.0 mi Calm Calm - N/A   Clear
10:53 PM 57.0 °F 54.0 °F 89% 30.02 in 10.0 mi Calm Calm - N/A   Clear
11:53 PM 55.0 °F 53.1 °F 93% 30.03 in 4.0 mi Calm Calm - N/A   Clear